Tracking 23611 objects as of 17-Sep-2021
HD Live streaming from Space Station
objects crossing your sky now
Track INSPIRATION-4

ST5-B

Track ST5-B now!
10-day predictions
ST5-B is classified as:


NORAD ID: 28981
Int'l Code: 2006-008B
Perigee: 270.1 km
Apogee: 2,536.3 km
Inclination: 105.5 °
Period: 113.7 minutes
Semi major axis: 7774 km
RCS: 0.3032 m2 (medium)
Launch date: March 22, 2006
Source: United States (US)
Launch site: Pegasus launched from Western Range Air Space (WRAS)
aabbcc
Your satellite tracking list
Your tracking list is empty




NASA's NSSDC Master Catalog

Two Line Element Set (TLE):
1 28981U 06008B   21259.68941932  .00016944  35098-5  32309-3 0  9997
2 28981 105.4556 180.3556 1457499 188.3493 169.0650 12.66541525651331
Source of the keplerian elements: AFSPC